MOZZOZ YSSY-YSSY

Flight info

Callsign MOZZOZ
Flight time 0h 0m
Altitude 1000
Route YSSY/25 YSSY YSSY
Aircraft OZZI/L-V/N

Departure

Time 2026-05-07 05:27
Airport Sydney Kingsford Smith International Airport (YSSY)

Arrival

Time 2026-05-07 05:28
Airport Sydney Kingsford Smith International Airport (YSSY)
Time Latitude Longitude Altitude Speed Heading
2026-05-07 05:23 -33.93901 151.19091 20 ft 0 kts 285°
2026-05-07 05:23 -33.93901 151.19092 20 ft 0 kts 295°
2026-05-07 05:24 -33.93900 151.19095 21 ft 3 kts 279°
2026-05-07 05:25 -33.93904 151.19104 23 ft 1 kts 248°
2026-05-07 05:25 -33.93922 151.19085 38 ft 15 kts 231°
2026-05-07 05:25 -33.94087 151.18852 51 ft 56 kts 251°
2026-05-07 05:25 -33.94176 151.18369 96 ft 66 kts 269°
2026-05-07 05:26 -33.94112 151.17842 252 ft 62 kts 294°
2026-05-07 05:26 -33.93788 151.18133 285 ft 104 kts 74°
2026-05-07 05:26 -33.93668 151.18496 378 ft 109 kts 78°
2026-05-07 05:26 -33.93318 151.19374 450 ft 115 kts 70°
2026-05-07 05:27 -33.93000 151.20231 524 ft 118 kts 77°
2026-05-07 05:27 -33.92750 151.21257 438 ft 126 kts 82°
2026-05-07 05:27 -33.92601 151.22341 451 ft 133 kts 106°
2026-05-07 05:27 -33.92610 151.23333 678 ft 110 kts 98°
2026-05-07 05:28 -33.92511 151.24248 914 ft 69 kts 84°
2026-05-07 05:28 -33.92285 151.24746 1354 ft 74 kts 67°
2026-05-07 05:28 -33.92258 151.25367 1069 ft 23 kts 240°
2026-05-07 05:28 -33.92511 151.24932 607 ft 71 kts 243°
2026-05-07 05:29 -33.92976 151.23174 303 ft 76 kts 252°
2026-05-07 05:29 -33.93293 151.22062 210 ft 486 kts 252°
2026-05-07 05:29 -33.93736 151.20253 199 ft 78 kts 258°
2026-05-07 05:29 -33.93876 151.19605 115 ft 82 kts 258°
2026-05-07 05:30 -33.93945 151.18951 70 ft 77 kts 263°
2026-05-07 05:30 -33.94043 151.18335 61 ft 72 kts 261°
2026-05-07 05:30 -33.94073 151.17890 16 ft 30 kts 284°
2026-05-07 05:30 -33.94066 151.17869 16 ft 0 kts 298°
2026-05-07 05:31 -33.94059 151.17945 73 ft 25 kts 49°
2026-05-07 05:31 -33.94006 151.18389 153 ft 73 kts 105°
2026-05-07 05:31 -33.93942 151.18988 389 ft 40 kts 213°
2026-05-07 05:31 -33.93950 151.18744 53 ft 62 kts 266°
2026-05-07 05:32 -33.93930 151.18556 122 ft 78 kts 102°
2026-05-07 05:32 -33.93874 151.19202 211 ft 13 kts 247°
2026-05-07 05:32 -33.93901 151.18907 75 ft 49 kts 270°
2026-05-07 05:32 -33.93906 151.18814 45 ft 68 kts 51°
2026-05-07 05:33 -33.93891 151.18955 194 ft 30 kts 297°
2026-05-07 05:33 -33.93904 151.18704 61 ft 26 kts 276°
2026-05-07 05:33 -33.93883 151.18572 89 ft 12 kts 215°
2026-05-07 05:33 -33.93826 151.18654 79 ft 49 kts 39°
2026-05-07 05:34 -33.93795 151.18840 29 ft 7 kts 268°
2026-05-07 05:34 -33.93778 151.18869 32 ft 15 kts 83°
2026-05-07 05:34 -33.93770 151.18914 26 ft 4 kts 287°
2026-05-07 05:34 -33.93773 151.18905 19 ft 0 kts 279°
2026-05-07 05:35 -33.93772 151.18907 19 ft 0 kts 341°
2026-05-07 05:35 -33.93775 151.18910 19 ft 3 kts 114°
2026-05-07 05:36 -33.93779 151.18929 19 ft 5 kts 232°
2026-05-07 05:36 -33.93753 151.18970 19 ft 3 kts
2026-05-07 05:36 -33.93751 151.18998 50 ft 4 kts 122°
2026-05-07 05:36 -33.93748 151.19022 53 ft 5 kts 248°
2026-05-07 05:37 -33.93749 151.18915 86 ft 35 kts
2026-05-07 05:37 -33.93691 151.19127 90 ft 12 kts 146°
2026-05-07 05:37 -33.93732 151.19028 35 ft 28 kts 266°
2026-05-07 05:37 -33.93821 151.18873 21 ft 0 kts 279°
2026-05-07 05:38 -33.93820 151.18875 19 ft 0 kts 256°
2026-05-07 05:40 -33.93819 151.18880 20 ft 2 kts 343°
2026-05-07 05:41 -33.93820 151.18903 34 ft 10 kts 254°
2026-05-07 05:41 -33.93856 151.18703 39 ft 35 kts 255°
2026-05-07 05:41 -33.93880 151.18534 23 ft 9 kts 274°